Regional Weather Roundup
Issued by NWS

Home | Current Version | Previous Version | Graphics & Text | Print | Product List | Glossary On
Versions: 1 2 3 4 5 6 7 8 9 10 11 12 13 14 15 16 17 18 19 20 21 22 23 24 25 26 27 28 29 30 31 32 33 34 35 36 37 38 39 40 41 42 43 44 45 46 47 48 49 50
000
ASUS43 KMKX 231400
RWRWI

WISCONSIN REGIONAL WEATHER ROUNDUP
NATIONAL WEATHER SERVICE MILWAUKEE/SULLIVAN WI
900 AM CDT THU OCT 23 2014

NOTE: "FAIR" INDICATES FEW OR NO CLOUDS BELOW 12,000 FEET WITH NO
SIGNIFICANT WEATHER AND/OR OBSTRUCTIONS TO VISIBILITY.

WIZ001-002-006>008-014>016-023>028-231500-
NORTHWEST WISCONSIN

CITY           SKY/WX    TMP DP  RH WIND       PRES   REMARKS
SUPERIOR ARPT  CLOUDY    48  47  97 CALM      29.97S
ASHLAND        CLOUDY    47  46  97 S5        30.00S
HAYWARD        CLOUDY    47  45  93 S8        30.00S
SIREN          CLOUDY    49  48  97 S5        30.00R FOG
CUMBERLAND     CLOUDY    45  45 100 S6        30.01R FOG
RICE LAKE      CLOUDY    47  45  93 SE6       30.03R FOG
CHETEK         LGT RAIN  46  46  98 E5        30.02S
LADYSMITH      LGT RAIN  45  44  95 SE8       30.05S
EAU CLAIRE     LGT RAIN  48  46  93 S8        30.02S
MENOMONIE      CLOUDY    48  47  97 CALM      30.02S FOG
NEW RICHMOND   CLOUDY    49  49  99 SW5       30.01R FOG
OSCEOLA        CLOUDY    50  50 100 S5        30.03R FOG
$$

WIZ003>005-009-010-017-018-231500-
NORTH CENTRAL WISCONSIN

CITY           SKY/WX    TMP DP  RH WIND       PRES   REMARKS
MANITOWISH WTR RAIN      42  41  95 S8        30.03S
ARBOR VITAE    DRIZZLE   44  41  90 S14       30.04S
WOODRUFF       DRIZZLE   44  41  90 S14       30.04S
RHINELANDER    CLOUDY    43  40  89 S5        30.06F
EAGLE RIVER    DRIZZLE   42  40  96 S5        30.05F
LAND O LAKES   RAIN      44  39  85 S6        30.06S
PHILLIPS       CLOUDY    43  41  91 S6        30.03S
TOMAHAWK       CLOUDY    41  40  94 CALM      30.07S FOG
MEDFORD        LGT RAIN  41  39  94 SE8       30.05S
MERRILL        CLOUDY    42  41  97 S5        30.07F FOG
$$

WIZ029-030-035-036-043>047-231500-
CENTRAL WISCONSIN

CITY           SKY/WX    TMP DP  RH WIND       PRES   REMARKS
WAUSAU         CLOUDY    42  39  89 SE7       30.07F
MOSINEE        NOT AVBL
MARSHFIELD     LGT RAIN  44  40  85 S8        30.06F FOG
STEVENS POINT  CLOUDY    40  37  90 S6        30.10F
WAUPACA        PTSUNNY   39  38  96 SE5       30.14F FOG
WAUTOMA        NOT AVBL
WISC RAPIDS    NOT AVBL
CAMP DOUGLAS   LGT RAIN  48  41  76 S7        30.08S
$$

WIZ011>013-019>022-031-037>040-048>050-231500-
NORTHEAST WISCONSIN

CITY           SKY/WX    TMP DP  RH WIND       PRES   REMARKS
ANTIGO         DRIZZLE   38  37  97 S12       30.10S WCI  30
SHAWANO        PTSUNNY   38  37  94 S3        30.14F
OCONTO         SUNNY     35  35 100 CALM      30.15F
STURGEON BAY   SUNNY     46  41  81 S13       30.17S
GREEN BAY      MOSUNNY   44  38  79 S8        30.16S
MANITOWOC      NOT AVBL
APPLETON       MOSUNNY   43  36  75 S8        30.15F
CLINTONVILLE   CLOUDY    36  36 100 S5        30.14S WCI  32
OSHKOSH        CLOUDY    42  38  85 S6        30.14F
$$

WIZ032>034-041-042-053>061-231500-
SOUTHWEST WISCONSIN

CITY           SKY/WX    TMP DP  RH WIND       PRES   REMARKS
LA CROSSE      CLOUDY    49  46  90 S10       30.06R
SPARTA         LGT RAIN  46  44  91 CALM      30.08R
VIROQUA        CLOUDY    44  43  94 SE8       30.07R
BOSCOBEL       RAIN      48  41  76 VRB3      30.10S
PRAIRIE DU CHI LGT RAIN  47  42  80 SE6       30.09R
PLATTEVILLE    CLOUDY    46  39  78 SE10      30.12S
$$

WIZ056-057-062-063-064-067-068-231500-
SOUTH CENTRAL WISCONSIN

CITY           SKY/WX    TMP DP  RH WIND       PRES   REMARKS
REEDSBURG      CLOUDY    46  37  71 CALM      30.10F
BARABOO/DELLS  CLOUDY    46  35  67 S8        30.11F
LONE ROCK      NOT AVBL
MINERAL POINT  CLOUDY    45  37  76 S10       30.12S
MADISON        PTSUNNY   45  37  73 S12       30.15F
MIDDLETON      PTSUNNY   46  36  69 S9        30.14F
WATERTOWN      MOSUNNY   40  37  89 S6        30.16S
MONROE         PTSUNNY   43  37  81 SE13      30.14F
JANESVILLE     NOT AVBL
$$

WIZ051-052-058>065-066-070>072-231500-
SOUTHEAST WISCONSIN

CITY           SKY/WX    TMP DP  RH WIND       PRES   REMARKS
MILWAUKEE      PTSUNNY   43  38  82 S6        30.20F
WAUKESHA       SUNNY     39  36  87 S7        30.19F WCI  34
MILWAUKEE/TIMM SUNNY     41  37  87 S5        30.20F
RACINE         SUNNY     45  39  79 SW5       30.22S
BURLINGTON     SUNNY     33  33 100 CALM      30.19F FOG
KENOSHA        SUNNY     42  38  85 CALM      30.21S
FOND DU LAC    CLOUDY    44  37  76 S7        30.15F
SHEBOYGAN      MOSUNNY   41  39  93 S5        30.18F
WEST BEND      MOSUNNY   37  36  93 CALM      30.18S FOG
JUNEAU         PTSUNNY   41  37  84 SE7       30.16F
$$

LSZ147-162-231500-
LAKE SUPERIOR

STATION/POSITION TIME  TEMP    WIND        PRES    WAVE
                       AIR SEA DIR/SP/G            HT/PER
                 (UTC) (F)     (DEG/KT/KT) (MB)    (FT/S)
W MID LAKE BUOY  1250   48 46  160/ 10/ 12 1016.2F   2/ 4
DEVILS ISLAND    1300   49     180/  6/  8 1015.9S
PORT WING        1300   49     180/  4/  6 1015.2S
SAXON HARBOR     1300   49     200/  3/  7 1015.6F
$$

LMZ867-665-643>646-231500-
LAKE MICHIGAN

STATION/POSITION TIME  TEMP    WIND        PRES    WAVE
                       AIR SEA DIR/SP/G            HT/PER
                 (UTC) (F)     (DEG/KT/KT) (MB)    (FT/S)
CHAMBERS ISLAND  1300   48     160/  5/ 11 1021.3F
N MID LAKE BUOY  1250   48 51  210/ 16/ 17 1022.2F   3/ 5
NORTHPORT PIER   1300   46     180/  2/  6 1021.7S
SISTER BAY       1243          180/  9/ 11   N/A
KEWAUNEE LAKESHO 1300   44     190/  7/  9 1021.2S
SHEBOYGAN LAKESH 1300   43 50  200/  9/ 10 1023.2S
PORT WASHINGTON  1300   45     200/  2/  3 1023.4S
ATWATER BUOY     1330   46     180/ 12/ 14 1023.6S
MILWAUKEE LAKESH 1300   43     240/  8/  9   N/A
S MID LAKE BUOY  1250   51 54  190/ 14/ 16 1023.3F   2/ 4
KENOSHA   LAKESH 1300   41     220/  3/  5 1023.0R
$$

TC  - TEMPERATURE IN CELSIUS
VSB - VISIBILITY IN STATUTE MILES
WCI - WIND CHILL INDEX
HX  - HEAT INDEX




USA.gov is the U.S. government's official web portal to all federal, state and local government web resources and services.